Hourly Data Report for May 30, 2006

TORONTO CITY
ONTARIO

43°40'00.000" N
79°24'00.000" W
112.50 m
6158355
71508
XTO

Download Data

Hourly Data (May 2006)
Hourly Data Report for May 30, 2006
TIME
LST
Temp Definition
°C
Dew Point Definition
°C
Rel Hum Definition
%
Precip. Amount Definition
mm

Wind Dir Definition
10's deg

Wind Spd Definition
km/h
Visibility Definition
km
Stn Press Definition
kPa
Hmdx Definition


Wind Chill Definition


Weather Definition


00:00 25.8 20.5 73   LegendMM LegendMM   100.32 34   LegendNANA
01:00 23.8 20.4 81   LegendMM LegendMM   100.39 32   LegendNANA
02:00 23.5 20.2 82   LegendMM LegendMM   100.40 31   LegendNANA
03:00 22.9 20.1 84   LegendMM LegendMM   100.37 31   LegendNANA
04:00 22.5 19.7 84   LegendMM LegendMM   100.39 30   LegendNANA
05:00 22.3 19.7 85   LegendMM LegendMM   100.42 30   LegendNANA
06:00 23.2 20.5 85   LegendMM LegendMM   100.45 31   LegendNANA
07:00 25.3 20.7 76   LegendMM LegendMM   100.48 33   LegendNANA
08:00 26.4 21.1 73   LegendMM LegendMM   100.49 35   LegendNANA
09:00 27.4 21.0 68   LegendMM LegendMM   100.50 36   LegendNANA
10:00 27.3 21.2 69   LegendMM LegendMM   100.48 36   LegendNANA
11:00 29.1 22.3 67   LegendMM LegendMM   100.49 39   LegendNANA
12:00 30.7 21.2 57   LegendMM LegendMM   100.46 39   LegendNANA
13:00 32.0 21.7 55   LegendMM LegendMM   100.42 41   LegendNANA
14:00 31.6 21.9 57   LegendMM LegendMM   100.38 41   LegendNANA
15:00 32.2 21.8 54   LegendMM LegendMM   100.30 41   LegendNANA
16:00 32.0 21.0 52   LegendMM LegendMM   100.27 40   LegendNANA
17:00 30.2 20.7 57   LegendMM LegendMM   100.24 38   LegendNANA
18:00 29.3 19.3 55   LegendMM LegendMM   100.20 36   LegendNANA
19:00 29.1 19.1 55   LegendMM LegendMM   100.23 36   LegendNANA
20:00 27.4 19.9 64   LegendMM LegendMM   100.22 35   LegendNANA
21:00 26.4 20.4 70   LegendMM LegendMM   100.30 34   LegendNANA
22:00 25.9 20.7 73   LegendMM LegendMM   100.33 34   LegendNANA
23:00 25.0 20.8 78   LegendMM LegendMM   100.33 33   LegendNANA

Notes on Data Quality.

Legend

  • E = Estimated
  • M = Missing
  • NA = Not Available*
  • [empty] = Indicates an unobserved value
Date modified: